[sarex] 2 Line ISS Keps 9-22

Dave Larsen PhD doc at volcano.net
Fri Sep 22 06:04:29 PDT 2006


ISS
1 25544U 98067A   06265.50238751  .00016984  00000-0  11033-3 0  7177
2 25544 051.6354 046.1584 0012058 014.4087 030.3185 15.76025805448515


More information about the SAREX mailing list